DW8027 Weather Reports


Display with metric or nautical units.
time (UTC)temp
F
wind
direction
speed
MPH
gust
MPH
rain 1hr
in
rain 24hr
in
rain mn
in
humidity
%
barometer
mb
20180814151336 85 98 0.0 0.0 0.00 0.00 0.00 74 1017.7
20180814150842 85 139 0.0 0.0 0.00 0.00 0.00 77 1017.7
20180814150329 84 107 0.0 0.0 0.00 0.00 0.00 76 1017.7
20180814145834 83 105 0.0 0.0 0.00 0.00 0.00 75 1017.7
20180814145340 83 120 0.0 0.0 0.00 0.00 0.00 73 1017.7
20180814144826 83 120 0.0 0.0 0.00 0.00 0.00 76 1017.6
20180814144331 82 120 0.0 0.0 0.00 0.00 0.00 79 1017.7
20180814143837 82 77 0.0 0.0 0.00 0.00 0.00 74 1017.7
20180814143343 82 109 0.0 0.0 0.00 0.00 0.00 79 1017.7
20180814142827 82 96 0.0 0.0 0.00 0.00 0.00 79 1017.7
20180814142332 81 25 0.0 0.0 0.00 0.00 0.00 81 1017.6
20180814141838 81 24 0.0 0.0 0.00 0.00 0.00 85 1017.6
20180814141324 80 25 0.0 0.0 0.00 0.00 0.00 82 1017.6
20180814140829 80 25 0.0 0.0 0.00 0.00 0.00 86 1017.7
20180814140333 79 24 0.0 0.0 0.00 0.00 0.00 84 1017.6
20180814135837 79 340 0.0 0.0 0.00 0.00 0.00 87 1017.6
20180814135342 78 340 0.0 0.0 0.00 0.00 0.00 88 1017.6
20180814134828 77 340 0.0 0.0 0.00 0.00 0.00 91 1017.6
20180814134334 76 340 0.0 0.0 0.00 0.00 0.00 95 1017.6
20180814133839 75 340 0.0 0.0 0.00 0.00 0.00 97 1017.6
20180814133344 73 340 0.0 0.0 0.00 0.00 0.00 98 1017.6
20180814132828 72 340 0.0 0.0 0.00 0.00 0.00 99 1017.6
20180814132331 71 340 0.0 0.0 0.00 0.00 0.00 99 1017.5
20180814131837 70 340 0.0 0.0 0.00 0.00 0.00 99 1017.6
20180814131342 70 340 0.0 0.0 0.00 0.00 0.00 99 1017.6
20180814130828 70 340 0.0 0.0 0.00 0.00 0.00 99 1017.6
20180814130335 69 340 0.0 0.0 0.00 0.00 0.00 99 1017.6
20180814125839 68 340 0.0 0.0 0.00 0.00 0.00 99 1017.6
20180814125325 68 340 0.0 0.0 0.00 0.00 0.00 99 1017.5
20180814124831 68 340 0.0 0.0 0.00 0.00 0.00 99 1017.5
20180814124337 67 340 0.0 0.0 0.00 0.00 0.00 99 1017.5
20180814123825 67 340 0.0 0.0 0.00 0.00 0.00 99 1017.5
20180814123330 67 340 0.0 0.0 0.00 0.00 0.00 99 1017.5
20180814122834 67 340 0.0 0.0 0.00 0.00 0.00 99 1017.4
20180814122339 66 340 0.0 0.0 0.00 0.00 0.00 99 1017.3
20180814121826 66 340 0.0 0.0 0.00 0.00 0.00 99 1017.3
20180814121331 66 340 0.0 0.0 0.00 0.00 0.00 99 1017.3
20180814120836 66 340 0.0 0.0 0.00 0.00 0.00 99 1017.2
20180814120340 66 340 0.0 0.0 0.00 0.00 0.00 99 1017.2
20180814115824 65 340 0.0 0.0 0.00 0.00 0.00 99 1017.2
20180814115331 65 340 0.0 0.0 0.00 0.00 0.00 99 1017.2
20180814114836 65 340 0.0 0.0 0.00 0.00 0.00 99 1017.2
20180814114342 65 340 0.0 0.0 0.00 0.00 0.00 99 1017.2
20180814113827 65 340 0.0 0.0 0.00 0.00 0.00 99 1017.1
20180814113334 65 340 0.0 0.0 0.00 0.00 0.00 99 1017.0
20180814112838 65 340 0.0 0.0 0.00 0.00 0.00 99 1017.0
20180814112342 65 340 0.0 0.0 0.00 0.00 0.00 99 1016.9
20180814111827 65 340 0.0 0.0 0.00 0.00 0.00 99 1017.0
20180814111333 65 340 0.0 0.0 0.00 0.00 0.00 99 1017.0
20180814110839 65 340 0.0 0.0 0.00 0.00 0.00 99 1017.0
20180814110343 65 340 0.0 0.0 0.00 0.00 0.00 99 1017.0
20180814105827 65 340 0.0 0.0 0.00 0.00 0.00 99 1016.9
20180814105333 65 340 0.0 0.0 0.00 0.00 0.00 99 1016.9
20180814104838 65 340 0.0 0.0 0.00 0.00 0.00 99 1016.8
20180814104342 65 340 0.0 0.0 0.00 0.00 0.00 99 1016.7
20180814103828 65 340 0.0 0.0 0.00 0.00 0.00 99 1016.7
20180814103334 66 340 0.0 0.0 0.00 0.00 0.00 99 1016.6
20180814102837 66 340 0.0 0.0 0.00 0.00 0.00 99 1016.7
20180814102343 66 340 0.0 0.0 0.00 0.00 0.00 99 1016.8
20180814101828 66 340 0.0 0.0 0.00 0.00 0.00 99 1016.8
20180814101332 66 340 0.0 0.0 0.00 0.00 0.00 99 1016.7
20180814100331 66 340 0.0 0.0 0.00 0.00 0.00 99 1016.7
20180814095835 66 340 0.0 0.0 0.00 0.00 0.00 99 1016.7
20180814095341 66 340 0.0 0.0 0.00 0.00 0.00 99 1016.7
20180814094826 66 340 0.0 0.0 0.00 0.00 0.00 99 1016.6
20180814094331 66 340 0.0 0.0 0.00 0.00 0.00 99 1016.6
20180814093837 66 340 0.0 0.0 0.00 0.00 0.00 99 1016.7
20180814093344 66 340 0.0 0.0 0.00 0.00 0.00 99 1016.7
20180814092828 66 340 0.0 0.0 0.00 0.00 0.00 99 1016.7
20180814092334 66 340 0.0 0.0 0.00 0.00 0.00 99 1016.6
20180814091840 66 340 0.0 0.0 0.00 0.00 0.00 99 1016.7
20180814091326 66 340 0.0 0.0 0.00 0.00 0.00 99 1016.5
20180814090831 67 340 0.0 0.0 0.00 0.00 0.00 99 1016.6
20180814090337 67 340 0.0 0.0 0.00 0.00 0.00 99 1016.5
20180814085840 67 340 0.0 0.0 0.00 0.00 0.00 99 1016.4
20180814085325 67 340 0.0 0.0 0.00 0.00 0.00 99 1016.4
20180814084831 67 340 0.0 0.0 0.00 0.00 0.00 99 1016.2
20180814084337 67 340 0.0 0.0 0.00 0.00 0.00 99 1016.2
20180814083827 67 340 0.0 0.0 0.00 0.00 0.00 99 1016.2
20180814083333 66 340 0.0 0.0 0.00 0.00 0.00 99 1016.2
20180814082838 66 340 0.0 0.0 0.00 0.00 0.00 99 1016.2
20180814082324 66 340 0.0 0.0 0.00 0.00 0.00 99 1016.1
20180814081830 66 340 0.0 0.0 0.00 0.00 0.00 98 1016.0
20180814081336 66 340 0.0 0.0 0.00 0.00 0.00 98 1016.0
20180814080841 67 340 0.0 0.0 0.00 0.00 0.00 98 1016.1
20180814080327 67 340 0.0 0.0 0.00 0.00 0.00 98 1015.9
20180814075832 66 340 0.0 0.0 0.00 0.00 0.00 98 1015.9
20180814075338 66 340 0.0 0.0 0.00 0.00 0.00 98 1015.9
20180814074843 66 340 0.0 0.0 0.00 0.00 0.00 98 1015.9
20180814074328 66 340 0.0 0.0 0.00 0.00 0.00 98 1015.9
20180814073833 66 340 0.0 0.0 0.00 0.00 0.00 98 1015.9
20180814073338 66 340 0.0 0.0 0.00 0.00 0.00 98 1016.0
20180814072843 66 340 0.0 0.0 0.00 0.00 0.00 98 1016.0
20180814072329 67 340 0.0 0.0 0.00 0.00 0.00 98 1016.1
20180814071835 66 340 0.0 0.0 0.00 0.00 0.00 98 1016.1
20180814071341 67 340 0.0 0.0 0.00 0.00 0.00 98 1016.1
20180814070827 67 340 0.0 0.0 0.00 0.00 0.00 98 1016.1
20180814070334 67 340 0.0 0.0 0.00 0.00 0.00 98 1016.2
20180814065839 67 340 0.0 0.0 0.00 0.00 0.00 98 1016.1
20180814065325 67 340 0.0 0.0 0.00 0.00 0.00 98 1016.1
20180814064831 67 340 0.0 0.0 0.00 0.00 0.00 98 1016.1
20180814064337 67 340 0.0 0.0 0.00 0.00 0.00 98 1016.1
20180814063843 67 340 0.0 0.0 0.00 0.00 0.00 98 1016.1
20180814063328 67 340 0.0 0.0 0.00 0.00 0.00 98 1016.1
20180814062832 67 340 0.0 0.0 0.00 0.00 0.00 98 1016.2
20180814062338 67 340 0.0 0.0 0.00 0.00 0.00 98 1016.2
20180814061824 68 340 0.0 0.0 0.00 0.00 0.00 98 1016.2
20180814061330 68 340 0.0 0.0 0.00 0.00 0.00 98 1016.2
20180814060835 68 340 0.0 0.0 0.00 0.00 0.00 98 1016.3
20180814060341 68 340 0.0 0.0 0.00 0.00 0.00 98 1016.3
20180814055826 68 340 0.0 0.0 0.00 0.00 0.00 98 1016.2
20180814055332 68 340 0.0 0.0 0.00 0.00 0.00 98 1016.2
20180814054837 68 340 0.0 0.0 0.00 0.00 0.00 98 1016.3
20180814054342 68 340 0.0 0.0 0.00 0.00 0.00 98 1016.3
20180814053827 68 340 0.0 0.0 0.00 0.00 0.00 98 1016.3
20180814053333 68 340 0.0 0.0 0.00 0.00 0.00 98 1016.3
20180814052837 68 340 0.0 0.0 0.00 0.00 0.00 98 1016.3
20180814052343 68 340 0.0 0.0 0.00 0.00 0.00 98 1016.3
20180814051828 68 340 0.0 0.0 0.00 0.00 0.00 97 1016.5
20180814051334 68 340 0.0 0.0 0.00 0.00 0.00 97 1016.7
20180814050840 68 340 0.0 0.0 0.00 0.00 0.00 97 1016.7
20180814050325 68 340 0.0 0.0 0.00 0.00 0.00 97 1016.8
20180814045830 68 340 0.0 0.0 0.00 0.00 0.00 97 1016.8
20180814045335 69 340 0.0 0.0 0.00 0.00 0.00 97 1016.7
20180814044824 69 340 0.0 0.0 0.00 0.00 0.00 97 1016.8
20180814044330 69 340 0.0 0.0 0.00 0.00 0.00 97 1016.8
20180814043837 69 340 0.0 0.0 0.00 0.00 0.00 97 1016.8
20180814043342 69 340 0.0 0.0 0.00 0.00 0.00 97 1016.9
20180814042826 69 340 0.0 0.0 0.00 0.00 0.00 97 1016.9
20180814042331 69 340 0.0 0.0 0.00 0.00 0.00 97 1016.9
20180814041837 69 340 0.0 0.0 0.00 0.00 0.00 97 1017.0
20180814041342 69 340 0.0 0.0 0.00 0.00 0.00 97 1017.0
20180814040828 69 340 0.0 0.0 0.00 0.00 0.00 97 1017.0
20180814040334 70 340 0.0 0.0 0.00 0.00 0.00 97 1017.0
20180814035838 70 340 0.0 0.0 0.00 0.00 0.00 97 1017.2
20180814035344 70 340 0.0 0.0 0.00 0.00 0.00 97 1017.1
20180814034829 70 340 0.0 0.0 0.00 0.00 0.00 96 1017.1
20180814034334 70 340 0.0 0.0 0.00 0.00 0.00 96 1017.1
20180814033839 70 340 0.0 0.0 0.00 0.00 0.00 96 1017.0
20180814033326 70 340 0.0 0.0 0.00 0.00 0.00 96 1017.2
20180814032830 70 340 0.0 0.0 0.00 0.00 0.00 97 1017.2
20180814032336 70 340 0.0 0.0 0.00 0.00 0.00 97 1017.1
20180814031842 70 340 0.0 0.0 0.00 0.00 0.00 97 1017.0
20180814031328 70 340 0.0 0.0 0.00 0.00 0.00 96 1017.0
20180814030834 70 340 0.0 0.0 0.00 0.00 0.00 96 1017.1
20180814030341 70 340 0.0 0.0 0.00 0.00 0.00 96 1017.1
20180814025826 70 340 0.0 0.0 0.00 0.00 0.00 96 1017.1
20180814025331 70 340 0.0 0.0 0.00 0.00 0.00 96 1017.1
20180814024837 71 340 0.0 0.0 0.00 0.00 0.00 96 1017.0
20180814024342 71 340 0.0 0.0 0.00 0.00 0.00 96 1016.9
20180814023827 71 340 0.0 0.0 0.00 0.00 0.00 96 1016.9
20180814023333 71 340 0.0 0.0 0.00 0.00 0.00 96 1016.9
20180814022836 71 340 0.0 0.0 0.00 0.00 0.00 96 1016.8
20180814022342 71 340 0.0 0.0 0.00 0.00 0.00 96 1016.9
20180814021828 71 340 0.0 0.0 0.00 0.00 0.00 96 1016.8
20180814021332 71 340 0.0 0.0 0.00 0.00 0.00 96 1016.8
20180814020838 72 340 0.0 0.0 0.00 0.00 0.00 96 1016.8
20180814020343 72 340 0.0 0.0 0.00 0.00 0.00 95 1016.7
20180814015827 72 340 0.0 0.0 0.00 0.00 0.00 95 1016.6
20180814015333 72 340 0.0 0.0 0.00 0.00 0.00 95 1016.6
20180814014839 72 340 0.0 0.0 0.00 0.00 0.00 94 1016.5
20180814014324 72 340 0.0 0.0 0.00 0.00 0.00 94 1016.5
20180814013830 73 340 0.0 0.0 0.00 0.00 0.00 94 1016.5
20180814013337 73 340 0.0 0.0 0.00 0.00 0.00 93 1016.5
20180814012841 73 340 0.0 0.0 0.00 0.00 0.00 93 1016.3
20180814012327 73 340 0.0 0.0 0.00 0.00 0.00 93 1016.3
20180814011833 73 340 0.0 0.0 0.00 0.00 0.00 92 1016.3
20180814011339 74 340 0.0 0.0 0.00 0.00 0.00 91 1016.2
20180814010824 74 340 0.0 0.0 0.00 0.00 0.00 91 1016.1
20180814010329 74 340 0.0 0.0 0.00 0.00 0.00 91 1016.0
20180814005832 75 340 0.0 0.0 0.00 0.00 0.00 90 1016.0
20180814005334 75 340 0.0 0.0 0.00 0.00 0.00 89 1015.9
20180814004824 75 340 0.0 0.0 0.00 0.00 0.00 89 1015.9
20180814004330 76 340 0.0 0.0 0.00 0.00 0.00 88 1015.8
20180814003836 76 340 0.0 0.0 0.00 0.00 0.00 87 1015.8
20180814003342 76 340 0.0 0.0 0.00 0.00 0.00 86 1015.8
20180814002826 77 340 0.0 0.0 0.00 0.00 0.00 86 1015.6
20180814002332 77 340 0.0 0.0 0.00 0.00 0.00 86 1015.5
20180814001838 77 340 0.0 0.0 0.00 0.00 0.00 85 1015.4
20180814001324 78 340 0.0 0.0 0.00 0.00 0.00 84 1015.5
20180814000829 78 340 0.0 0.0 0.00 0.00 0.00 84 1015.4
20180814000335 78 340 0.0 0.0 0.00 0.00 0.00 81 1015.3
20180813235839 79 340 0.0 0.0 0.00 0.00 0.00 81 1015.2
20180813235325 79 340 0.0 0.0 0.00 0.00 0.00 80 1015.2
20180813234831 79 340 0.0 0.0 0.00 0.00 0.00 79 1015.2
20180813234337 80 340 0.0 0.0 0.00 0.00 0.00 78 1015.1
20180813233843 80 340 0.0 0.0 0.00 0.00 0.00 77 1015.1
20180813233328 80 340 0.0 0.0 0.00 0.00 0.00 76 1015.1
20180813232832 80 340 0.0 0.0 0.00 0.00 0.00 74 1015.0
20180813232336 80 340 0.0 0.0 0.00 0.00 0.00 74 1015.1
20180813231841 80 340 0.0 0.0 0.00 0.00 0.00 75 1015.0
20180813231327 81 340 0.0 0.0 0.00 0.00 0.00 75 1014.9
20180813230833 81 340 0.0 0.0 0.00 0.00 0.00 74 1015.0
20180813230338 81 340 0.0 0.0 0.00 0.00 0.00 73 1014.9
20180813225843 82 340 0.0 0.0 0.00 0.00 0.00 72 1015.0
20180813225329 82 340 0.0 0.0 0.00 0.00 0.00 75 1015.0
20180813224835 82 340 0.0 0.0 0.00 0.00 0.00 74 1014.9
20180813224341 82 340 0.0 0.0 0.00 0.00 0.00 75 1015.0
20180813223827 83 340 0.0 0.0 0.00 0.00 0.00 74 1015.1
20180813223330 83 300 0.0 0.0 0.00 0.00 0.00 74 1015.0
20180813222834 83 300 0.0 0.0 0.00 0.00 0.00 72 1015.0
20180813222340 83 299 0.0 0.0 0.00 0.00 0.00 71 1015.0
20180813221825 83 300 0.0 0.0 0.00 0.00 0.00 72 1015.0
20180813221332 83 299 0.0 0.0 0.00 0.00 0.00 70 1014.9
20180813220838 84 300 0.0 0.0 0.00 0.00 0.00 70 1015.0
20180813220343 84 300 0.0 0.0 0.00 0.00 0.00 70 1015.0
20180813215829 85 301 0.0 0.0 0.00 0.00 0.00 70 1015.0
20180813215334 85 301 0.0 0.0 0.00 0.00 0.00 70 1015.1
20180813214839 86 300 0.0 0.0 0.00 0.00 0.00 68 1015.1
20180813214325 87 301 0.0 0.0 0.00 0.00 0.00 67 1015.1
20180813213830 87 136 0.0 0.0 0.00 0.00 0.00 65 1015.1
20180813213336 87 136 0.0 0.0 0.00 0.00 0.00 65 1015.1
20180813212840 87 137 0.0 0.0 0.00 0.00 0.00 63 1015.1
20180813212325 87 138 0.0 0.0 0.00 0.00 0.00 63 1015.1
20180813211832 88 23 0.0 0.0 0.00 0.00 0.00 64 1015.2
20180813211337 88 7 0.0 0.0 0.00 0.00 0.00 63 1015.2
20180813210843 88 48 0.0 0.0 0.00 0.00 0.00 63 1015.2
20180813210329 88 66 0.0 0.0 0.00 0.00 0.00 63 1015.2
20180813205834 89 260 0.0 0.0 0.00 0.00 0.00 63 1015.3
20180813205339 89 323 0.0 0.0 0.00 0.00 0.00 60 1015.2
20180813204829 89 101 0.0 0.0 0.00 0.00 0.00 57 1015.2
20180813204335 89 115 0.0 0.0 0.00 0.00 0.00 53 1015.2
20180813203840 89 61 0.0 0.0 0.00 0.00 0.00 58 1015.3
20180813203327 89 349 0.0 0.0 0.00 0.00 0.00 58 1015.3
20180813202831 90 75 0.0 0.0 0.00 0.00 0.00 61 1015.4
20180813202337 89 105 0.0 0.0 0.00 0.00 0.00 59 1015.5
20180813201842 89 132 0.0 0.0 0.00 0.00 0.00 64 1015.6
20180813201328 89 22 0.0 0.0 0.00 0.00 0.00 67 1015.6
20180813200834 89 90 0.0 0.0 0.00 0.00 0.00 65 1015.8
20180813200341 89 107 0.0 0.0 0.00 0.00 0.00 64 1015.8
20180813195825 89 107 0.0 0.0 0.00 0.00 0.00 59 1015.9
20180813195330 89 297 0.0 0.0 0.00 0.00 0.00 62 1016.1
20180813194836 89 114 0.0 0.0 0.00 0.00 0.00 62 1016.1
20180813194342 89 111 0.0 3.0 0.00 0.00 0.00 54 1016.1
20180813193827 90 50 0.0 0.0 0.00 0.00 0.00 59 1016.2
20180813193331 90 101 0.0 0.0 0.00 0.00 0.00 63 1016.3
20180813192836 91 315 0.0 0.0 0.00 0.00 0.00 57 1016.4
20180813192341 90 117 0.0 0.0 0.00 0.00 0.00 60 1016.4
20180813191825 90 135 0.0 0.0 0.00 0.00 0.00 61 1016.5
20180813191331 90 124 0.0 0.0 0.00 0.00 0.00 58 1016.6
20180813190836 90 84 0.0 0.0 0.00 0.00 0.00 55 1016.7
20180813190340 90 70 0.0 1.0 0.00 0.00 0.00 60 1016.7
20180813185825 90 100 0.0 1.0 0.00 0.00 0.00 58 1016.8
20180813185331 91 115 0.0 0.0 0.00 0.00 0.00 61 1016.8
20180813184837 90 136 0.0 0.0 0.00 0.00 0.00 62 1016.9
20180813184342 89 44 0.0 0.0 0.00 0.00 0.00 64 1017.0
20180813183828 89 80 0.0 0.0 0.00 0.00 0.00 59 1017.0
20180813183333 90 82 0.0 0.0 0.00 0.00 0.00 67 1017.1
20180813182837 89 39 0.0 0.0 0.00 0.00 0.00 62 1017.2
20180813182343 88 4 0.0 0.0 0.00 0.00 0.00 62 1017.2
20180813181829 90 86 0.0 0.0 0.00 0.00 0.00 61 1017.3
20180813181335 90 355 0.0 0.0 0.00 0.00 0.00 61 1017.3
20180813180840 90 355 0.0 0.0 0.00 0.00 0.00 59 1017.3
20180813180326 89 116 0.0 0.0 0.00 0.00 0.00 59 1017.4
20180813175830 89 236 0.0 0.0 0.00 0.00 0.00 58 1017.4
20180813175336 89 77 0.0 1.0 0.00 0.00 0.00 62 1017.4
20180813174842 89 197 0.0 1.0 0.00 0.00 0.00 57 1017.5
20180813174327 89 54 0.0 2.0 0.00 0.00 0.00 57 1017.6
20180813173833 89 70 0.0 0.0 0.00 0.00 0.00 66 1017.6
20180813173339 88 105 0.0 0.0 0.00 0.00 0.00 59 1017.6
20180813172824 89 122 0.0 0.0 0.00 0.00 0.00 61 1017.6
20180813172329 89 135 0.0 0.0 0.00 0.00 0.00 61 1017.6
20180813171835 89 84 0.0 0.0 0.00 0.00 0.00 65 1017.6
20180813171341 89 347 0.0 0.0 0.00 0.00 0.00 61 1017.6
20180813170827 89 131 0.0 0.0 0.00 0.00 0.00 65 1017.7
20180813170332 88 157 0.0 0.0 0.00 0.00 0.00 61 1017.7
20180813165836 88 134 0.0 0.0 0.00 0.00 0.00 65 1017.7
20180813165325 88 120 0.0 0.0 0.00 0.00 0.00 65 1017.8
20180813164831 88 131 0.0 0.0 0.00 0.00 0.00 65 1017.9
20180813164335 87 138 0.0 0.0 0.00 0.00 0.00 64 1017.9
20180813163840 87 124 0.0 0.0 0.00 0.00 0.00 64 1017.8
20180813163327 87 122 0.0 0.0 0.00 0.00 0.00 63 1017.9
20180813162830 86 164 0.0 0.0 0.00 0.00 0.00 65 1017.9
20180813162335 86 103 0.0 0.0 0.00 0.00 0.00 65 1017.9
20180813161840 86 165 0.0 0.0 0.00 0.00 0.00 66 1017.9
20180813161325 86 96 0.0 1.0 0.00 0.00 0.00 65 1017.9
20180813160831 86 111 0.0 1.0 0.00 0.00 0.00 63 1018.0
20180813160336 87 100 0.0 3.0 0.00 0.00 0.00 65 1018.0
20180813155839 87 236 0.0 3.0 0.00 0.00 0.00 64 1018.0
20180813155325 87 139 0.0 0.0 0.00 0.00 0.00 68 1018.1
20180813154831 87 137 0.0 0.0 0.00 0.00 0.00 69 1018.1
20180813154336 86 217 0.0 0.0 0.00 0.00 0.00 65 1018.1
20180813153842 86 134 0.0 0.0 0.00 0.00 0.00 64 1018.2
20180813153327 87 129 0.0 0.0 0.00 0.00 0.00 65 1018.1
20180813152831 86 149 0.0 0.0 0.00 0.00 0.00 68 1018.1
20180813152336 86 159 0.0 0.0 0.00 0.00 0.00 70 1018.2
20180813151842 86 144 0.0 0.0 0.00 0.00 0.00 68 1018.1